Other Public Products
Issued by NWS Grand Forks, ND

Home | Current Version | Previous Version | Text Only | Print | Product List | Glossary Off
Versions: 1 2 3 4 5 6 7 8 9 10 11 12 13 14 15 16 17 18 19 20 21 22 23 24 25 26 27 28 29 30 31 32 33 34 35 36 37 38 39 40 41 42 43 44 45 46 47 48 49 50

000
FPUS83 KFGF 240231
OPUFGF
PRAIRIE TO PINES WEATHER ROUNDUP
NATIONAL WEATHER SERVICE EASTERN NORTH DAKOTA/GRAND FORKS ND
900 PM CDT SAT SEP 23 2017

 **SATELLITE DATA USED TO AUGMENT SKY COVER AT AUTOMATED STATIONS**
 *****  WEATHER ACROSS EASTERN NORTH DAKOTA  *****

CITY           SKY/WX    TMP DP  RH WIND       PRES   REMARKS
GRAND FORKS    CLOUDY    58  50  75 N13       30.03F
GRAND FORKS AF CLOUDY    55  48  76 NE15      30.02F
GRAND CITY NWS NOT AVBL
BUXTON           N/A     43  49 100 N10         N/A
DEVILS LAKE    CLOUDY    52  45  77 NE12      30.06F
FARGO          LGT RAIN  56  54  93 NE8       30.01F
WAHPETON ARPT  CLOUDY    55  52  88 NE8       29.98F
$$

 *****  WEATHER ACROSS CENTRAL AND WESTERN NORTH DAKOTA  *****

CITY           SKY/WX    TMP DP  RH WIND       PRES   REMARKS
JAMESTOWN      RAIN      53  51  93 NE7       29.99F
BISMARCK       LGT RAIN  50  48  93 N14       30.03F
MINOT          LGT RAIN  49  46  90 NW7       30.10S
MINOT AFB      LGT RAIN  49  45  86 N7        30.10S
GARRISON         N/A     47  45  93 N6        30.08F
WILLISTON      LGT RAIN  47  43  86 E3        30.16R
DICKINSON      RAIN      45  44  97 N8        30.06S FOG
HETTINGER      LGT RAIN  45  42  89 N9        30.07R
$$

 *****  OTHER OBSERVATIONS NORTHEAST NORTH DAKOTA  *****

CITY           SKY/WX    TMP DP  RH WIND       PRES   REMARKS
WALHALLA       FAIR     N/A N/A N/A N8        30.08F
LANGDON        CLOUDY    52  50  93 N10       30.08F
CAVALIER       MOCLDY    54  48  82 N10       30.07F
GRAFTON        CLOUDY    55  48  76 N13       30.06F
CANDO          CLOUDY    50  50 100 N10       30.08F
FORT TOTTEN      N/A     52  46  81 NE6       29.95S
ROLLA          CLOUDY    48  46  93 NE5       30.11S
RUGBY          CLOUDY    48  48 100 N8        30.07F
 ***** THE ABOVE OBSERVATIONS ARE NON NWS ARE NOT QUALITY
        CONTROLLED AND MAY MIS-REPORT RAIN FOR SNOW...
$$

 *****  OTHER OBSERVATIONS SOUTHEAST NORTH DAKOTA *****

CITY           SKY/WX    TMP DP  RH WIND       PRES   REMARKS
COOPERSTOWN    DRIZZLE   54  50  87 NE9G16    30.02F
VALLEY CITY    LGT RAIN  52  52 100 N10       30.01F
OAKES          NOT AVBL
GWINNER        CLOUDY    54  54 100 E13       29.96F
SHEYENNE NWR     N/A     54  54 100 E5        29.95S
BUFFALO          N/A     54  51  89 W12         N/A
WYNDMERE       NOT AVBL
 ***** THE ABOVE OBSERVATIONS ARE NON NWS ARE NOT QUALITY
       CONTROLLED AND MAY MIS-REPORT RAIN FOR SNOW...
$$

  *****  WEATHER ACROSS NORTHERN MINNESOTA  *****

CITY           SKY/WX    TMP DP  RH WIND       PRES   REMARKS
FLAG ISLAND    CLOUDY    55  52  88 N8        30.06S
WARROAD        CLOUDY    55  52  88 N9        30.05F
ROSEAU         CLOUDY    57  52  82 N8        30.05F
HALLOCK          N/A     57  50  77 N10       30.05F
THF RVR FALLS  CLOUDY    56  52  86 NE12      30.04F
HALSTAD          N/A     56  54  92 E7          N/A
FOSSTON        CLOUDY    54  54 100 NE6       30.05F
BAUDETTE       CLOUDY    55  53  93 N7        30.04F
WASKISH        CLOUDY    55  54  94 N7          N/A
CROOKSTON      CLOUDY    57  52  82 NE5       30.04R
$$
  *****  WEATHER ACROSS CENTRAL AND WEST MINNESOTA  *****

CITY           SKY/WX    TMP DP  RH WIND       PRES   REMARKS
BEMIDJI        CLOUDY    54  53  95 NE5       30.04R
PARK RAPIDS    CLOUDY    57  54  89 N3        30.04R
WADENA         LGT RAIN  55  55 100 N8        30.02S
DETROIT LAKES  CLOUDY    55  54  94 NE6       30.04R
MOORHEAD       LGT RAIN  54  52  94 NE8       30.02S
FERGUS FALLS   RAIN      55  55 100 NE7       30.00F
ELBOW LAKE     RAIN      58  57  99 NE7       30.00R
MORRIS MN      NOT AVBL
STAPLES        RAIN      55  55 100 N5        30.00R
WHEATON        MOCLDY    55  54  94 NE9       29.98F
$$
  *****  WEATHER ELSEWHERE ACROSS MINNESOTA  *****

CITY           SKY/WX    TMP DP  RH WIND       PRES   REMARKS
DULUTH         MOCLDY    67  66  97 N8        30.00R
INTRNTL FALLS  CLOUDY    56  54  93 NW5       30.05S
ELY            CLOUDY    63  59  88 CALM      30.04S
CLOQUET        FAIR      66  63  88 N5        30.00S
BRAINERD       LGT RAIN  59  58  96 E6        30.01S
HIBBING        HVY RAIN  58  57  97 N3        30.04R FOG
ALEXANDRIA     RAIN      59  58  96 NE9       30.00R FOG
SAINT CLOUD    TSTM      64  64 100 N14G20    29.94F FOG
MINNEAPOLIS    MOCLDY    81  71  71 SE9       29.92R
$$

  *****  WEATHER ACROSS SOUTH DAKOTA  *****

CITY           SKY/WX    TMP DP  RH WIND       PRES   REMARKS
SIOUX FALLS    CLOUDY    65  63  93 E7        29.88R
BROOKINGS      CLOUDY    55  54  94 N14       29.94R
WATERTOWN      RAIN      54  54 100 NE8       29.96R FOG
HURON          RAIN      55  55 100 NE6       29.94R FOG
SISSETON         N/A     55  55 100 N8        29.95F
ABERDEEN       CLOUDY    54  54 100 NE10      29.95R
MITCHELL       RAIN      57  57 100 E6        29.95F FOG
PIERRE         LGT RAIN  51  49  92 NW5       29.98S
MOBRIDGE       CLOUDY    54  51  90 CALM      30.01R
RAPID CITY     LGT RAIN  46  45  93 N8        30.04F FOG
$$

  *****  SOME WEATHER IN NEARBY STATES *****

CITY           SKY/WX    TMP DP  RH WIND       PRES   REMARKS
GLASGOW MT     CLOUDY    48  38  68 SE5       30.14R
GREAT FALLS MT FAIR      43  32  65 S6        30.08S
CHEYENNE WY    RAIN      41  39  93 NE10      29.99F FOG
SCOTTSBLUFF NE LGT RAIN  46  43  89 MISG      30.02R
OMAHA NE       MOCLDY    82  64  54 SE14      29.90R
DES MOINES IA  FAIR      82  66  58 SE7       29.95S
DAVENPORT IA   FAIR      76  64  66 SE6       30.03R
CHICAGO IL     FAIR      83  65  54 E8        30.04S
EAU CLAIRE WI  FAIR      78  66  66 SE6       29.97R
LA CROSSE WI   FAIR      79  66  64 S3        29.97R
$$

  *****  SOME NATIONAL WEATHER *****

CITY           SKY/WX    TMP DP  RH WIND       PRES   REMARKS
LA GUARDIA NY  FAIR      77  58  51 N3        30.03R
RALEIGH NC     MOCLDY    72  63  73 CALM      30.07S
ATLANTA GA     FAIR      78  64  61 E3        30.03S
NEW ORLEANS LA FAIR      81  68  64 E6        29.93R
OKLAHOMA CITY  FAIR      77  63  61 SE7       29.91R
ALBUQUERQUE NM FAIR      69  45  41 NE3       29.84R
SALT LAKE CITY LGT RAIN  50  43  77 S6        29.95R
LOS ANGELES CA FAIR      65  58  78 W12       29.84S
BOISE ID       FAIR      56  34  43 W8        30.01S
SEATTLE WA     MOCLDY    64  49  57 NW3       30.09S
$$

*** WEATHER ACROSS MANITOBA...SASKATCHEWAN AND ONTARIO ***
                ***ONTARIO***

CITY           SKY/WX    TMP DP  RH WIND       PRES   REMARKS
GERALDTON      MOCLDY    68  64  88 W5        29.99S
THUNDER BAY    MOCLDY    68  66  94 SW2       29.98R
SIOUX LOOKOUT  DRIZZLE   55  55 100 CALM      30.05  FOG
TORONTO        CLEAR     79  66  65 NW7       30.08S
BIG TROUT LK   LGT RAIN  46  46 100 N5        30.12R FOG
PICKLE LAKE    CLOUDY    55  54  94 N5        30.04R FOG
DRYDEN         CLOUDY    54  54 100 NW3       30.07R FOG
KENORA         CLOUDY    52  52 100 N5        30.09  FOG
$$
                *** MANITOBA***

CITY           SKY/WX    TMP DP  RH WIND       PRES   REMARKS
BRANDON        CLOUDY    52  43  71 E10       30.12F
DAUPHIN        CLOUDY    50  46  87 CALM      30.16R
ISLAND LAKE    CLOUDY    48  43  81 N8        30.16R
PILOT MOUND      N/A     48  46  93 N7          N/A
THE PAS        CLOUDY    46  43  87 E5        30.16R
THOMPSON       CLOUDY    41  37  87 N5        30.23R
WINNIPEG       CLOUDY    54  48  82 NE3       30.11
LYNN LAKE      CLOUDY    41  37  87 SE7       30.22R
CHURCHILL      CLOUDY    39  36  87 VRB2      30.26R
GILLAM         CLOUDY    41  37  87 N9        30.22F
$$
                ***SASKATCHEWAN***

CITY           SKY/WX    TMP DP  RH WIND       PRES   REMARKS
ESTEVAN        CLOUDY    46  39  76 N5        30.15R
KINDERSLEY     MOCLDY    45  39  81 E6        30.11R
LLOYDMINSTER   MOCLDY    43  36  75 S5        30.10S
PRINCE ALBERT  MOCLDY    46  39  76 NE2       30.16R
REGINA         CLOUDY    46  36  66 E5        30.16R
YORKTON        CLOUDY    46  41  81 N3        30.15S



USA.gov is the U.S. government's official web portal to all federal, state and local government web resources and services.